Location: Unspecified
(0.0000°N, 0.0000°E)
Time: 06:35:50
(UTC+02:00)

NATO 3D Rocket - Visible Passes

Search period start: 03 September 2014 00:00
Search period end: 13 September 2014 00:00
Orbit: 670 x 2297 km, 21.5° (Epoch: 02 September)

Date Brightness Start Highest point End Pass type
(mag) Time Alt. Az. Time Alt. Az. Time Alt. Az.
03 Sep 6.9 04:08:16 18° NNE 04:08:16 18° NNE 04:13:19 10° NE visible
03 Sep 6.7 06:03:50 13° NW 06:12:33 32° NNE 06:24:17 10° ENE visible
03 Sep 3.6 20:49:23 10° SW 20:54:03 47° SSE 20:56:47 22° E visible
04 Sep 6.5 05:10:35 23° N 05:13:51 26° NNE 05:23:59 10° ENE visible
04 Sep 6.5 07:09:08 10° NW 07:20:46 48° NNE 07:34:10 10° E visible
04 Sep 4.0 21:55:41 10° WSW 21:59:20 48° WNW 21:59:20 48° WNW visible
05 Sep 6.8 04:17:23 20° NNE 04:17:23 20° NNE 04:23:28 10° ENE visible
05 Sep 6.5 06:12:57 14° NW 06:21:59 40° NNE 06:34:28 10° E visible
05 Sep 3.2 20:58:39 10° WSW 21:03:37 90° SSE 21:06:18 26° ENE visible
06 Sep 6.3 05:19:47 26° NNW 05:23:28 31° NNE 05:34:20 10° ENE visible
06 Sep 6.2 07:18:08 10° NW 07:29:51 62° NNE 07:43:49 10° E visible
06 Sep 4.9 22:05:43 10° W 22:08:51 28° NW 22:08:51 28° NW visible
07 Sep 6.6 04:26:41 23° NNE 04:26:41 23° NNE 04:33:53 10° ENE visible
07 Sep 6.1 06:22:15 15° NW 06:31:12 50° NNE 06:44:21 10° E visible
07 Sep 4.0 21:08:17 10° W 21:13:10 47° NNW 21:15:48 23° NE visible
08 Sep 6.0 05:29:10 31° NNW 05:32:51 39° NNE 05:44:27 10° E visible
08 Sep 5.9 07:27:15 10° WNW 07:38:51 79° NNE 07:53:07 10° ESE visible
08 Sep 5.6 22:16:18 10° WNW 22:18:20 17° NW 22:18:20 17° NW visible
09 Sep 6.3 04:36:07 29° NE 04:36:07 29° NE 04:44:16 10° ENE visible
09 Sep 5.8 06:31:42 17° NW 06:40:16 65° NNE 06:53:51 10° ESE visible
09 Sep 5.0 21:18:24 10° W 21:22:42 27° NNW 21:25:15 17° NNE visible
10 Sep 7.2 03:43:04 12° ENE 03:43:04 12° ENE 03:43:56 10° ENE visible
10 Sep 5.6 05:38:39 39° NNW 05:42:02 51° NNE 05:54:14 10° E visible
10 Sep 4.6 20:20:21 10° W 20:25:55 41° NNW 20:30:27 10° NE visible
11 Sep 6.0 04:45:38 37° NE 04:45:38 37° NE 04:54:22 10° E visible
11 Sep 5.5 06:41:13 19° WNW 06:49:19 84° NNE 07:02:59 10° ESE visible
11 Sep 5.5 21:29:06 10° WNW 21:32:18 16° NNW 21:34:36 12° NNE visible
12 Sep 7.0 03:52:36 15° ENE 03:52:36 15° ENE 03:54:23 10° ENE visible
12 Sep 5.2 05:48:11 49° NW 05:51:08 68° NNE 06:03:37 10° ESE visible
12 Sep 5.4 20:30:28 10° W 20:35:22 25° NNW 20:39:27 10° NNE visible
